Hourly Data Report for October 26, 2016

All times are specified in Local Standard Time (LST). Add 1 hour to adjust for Daylight Saving Time where and when it is observed.

RANKIN INLET A
NUNAVUT

62°48'38.000" N
92°06'53.000" W
32.30 m
2303405
71083
YRT

Download Data

Hourly Data (October 2016)
Hourly Data Report for October 26, 2016
Temp Definition
°C
Dew Point Temp Definition
°C
Rel Hum Definition
%
Wind Dir Definition
10's deg

Wind Spd Definition
km/h
Visibility Definition
km
Stn Press Definition
kPa
Hmdx Definition


Wind Chill Definition


Weather Definition


TIME
00:00 Legend Double Dagger -2.6 -3.3 95 31 11 16.1 102.30   -7 Snow
01:00 Legend Double Dagger -2.5 -3.2 95 29 11 16.1 102.26   -7 Snow
02:00 Legend Double Dagger -3.1 -3.8 95 30 8 24.1 102.24   -6 LegendNANA
03:00 Legend Double Dagger -2.8 -3.6 94 29 11 24.1 102.21   -7 Cloudy
04:00 Legend Double Dagger -2.9 -3.6 95 31 3 16.1 102.16   -4 Snow
05:00 Legend Double Dagger -2.0 -2.7 95 28 8 9.7 102.11   -5 Snow
06:00 Legend Double Dagger -1.9 -2.5 96 26 7 9.7 102.07   -5 Snow
07:00 Legend Double Dagger -1.6 -2.2 96 25 14 8.1 102.03   -6 Snow
08:00 Legend Double Dagger -1.8 -2.5 95 25 17 6.4 101.98   -7 Snow
09:00 Legend Double Dagger -1.7 -2.4 95 24 17 4.8 101.92   -7 Snow
10:00 Legend Double Dagger -1.5 -2.2 95 25 15 4.8 101.90   -6 Snow
11:00 Legend Double Dagger -1.4 -2.2 94 24 16 4.8 101.84   -6 Snow
12:00 Legend Double Dagger -1.4 -2.4 93 26 17 4.8 101.79   -7 Snow
13:00 Legend Double Dagger -1.6 -2.6 93 28 16 16.1 101.77   -7 LegendNANA
14:00 Legend Double Dagger -1.8 -2.9 92 29 17 16.1 101.75   -7 LegendNANA
15:00 Legend Double Dagger -2.1 -3.2 92 29 19 24.1 101.72   -8 Mostly Cloudy
16:00 Legend Double Dagger -4.6 -5.6 93 30 19 24.1 101.72   -11 LegendNANA
17:00 Legend Double Dagger -5.3 -6.3 93 30 15 24.1 101.72   -11 LegendNANA
18:00 Legend Double Dagger -5.0 -6.0 93 30 13 24.1 101.74   -10 Mostly Cloudy
19:00 Legend Double Dagger -5.8 -6.5 95 32 22 3.2 101.70   -13 Fog
20:00 Legend Double Dagger -7.2 -7.7 96 30 16 0.4 101.69   -14 Freezing Fog
21:00 Legend Double Dagger -8.7 -9.4 95 30 13 0.8 101.65   -15 Freezing Fog
22:00 Legend Double Dagger -9.2 -10.0 94 28 16 0.8 101.63   -16 Freezing Fog
23:00 Legend Double Dagger -9.3 -10.1 94 29 16 0.8 101.62   -16 Freezing Fog

Notes on Data Quality.

Legend

  • E = Estimated
  • M = Missing
  • NA = Not Available
  • ‡ = Partner data that is not subject to review by the National Climate Archives
Date modified: